CW5439 Weather Reports


time (UTC)temp
F
wind
direction
speed
knots
gust
knots
rain 1hr
in
rain 24hr
in
rain mn
in
humidity
%
barometer
mb
20260508142705 58 246 4.3 8.7 0.00 0.00 0.00 59 1015.3
20260508142205 58 223 4.3 8.7 0.00 0.00 0.00 60 1015.3
20260508141709 57 247 4.3 8.7 0.00 0.00 0.00 62 1015.3
20260508141204 57 257 4.3 12.2 0.00 0.00 0.00 62 1015.4
20260508140205 58 259 6.1 12.2 0.00 0.00 0.00 62 1015.3
20260508135705 58 293 6.1 11.3 0.00 0.00 0.00 60 1015.1
20260508135205 58 236 5.2 10.4 0.00 0.00 0.00 62 1015.3
20260508134704 57 244 5.2 13.0 0.00 0.00 0.00 64 1015.3
20260508134205 57 216 6.1 13.0 0.00 0.00 0.00 63 1015.1
20260508133705 57 267 6.1 13.0 0.00 0.00 0.00 63 1015.1
20260508133206 57 281 6.1 11.3 0.00 0.00 0.00 62 1015.1
20260508132706 57 219 5.2 10.4 0.00 0.00 0.00 62 1015.1
20260508132205 57 238 4.3 10.4 0.00 0.00 0.00 64 1015.1
20260508131705 56 238 5.2 10.4 0.00 0.00 0.00 63 1015.0
20260508131206 57 258 4.3 10.4 0.00 0.00 0.00 63 1015.0
20260508130705 57 248 4.3 10.4 0.00 0.00 0.00 64 1014.9
20260508130205 57 277 5.2 13.9 0.00 0.00 0.00 63 1014.9
20260508125705 57 242 6.1 13.9 0.00 0.00 0.00 62 1014.9
20260508125205 57 215 6.1 13.9 0.00 0.00 0.00 63 1014.8
20260508124705 58 206 6.1 13.9 0.00 0.00 0.00 60 1014.8
20260508124205 59 250 6.1 13.9 0.00 0.00 0.00 59 1014.7
20260508123705 59 256 5.2 12.2 0.00 0.00 0.00 60 1014.7
20260508123205 59 217 5.2 12.2 0.00 0.00 0.00 58 1014.7
20260508122706 59 235 6.1 12.2 0.00 0.00 0.00 60 1014.8
20260508122206 58 247 6.1 13.0 0.00 0.00 0.00 60 1014.7
20260508121705 58 229 7.0 13.0 0.00 0.00 0.00 60 1014.7
20260508121221 57 259 7.0 16.5 0.00 0.00 0.00 61 1014.7
20260508120706 58 217 7.0 16.5 0.00 0.00 0.00 61 1014.7
20260508120205 57 219 8.7 16.5 0.00 0.00 0.00 61 1014.7
20260508115705 57 208 7.8 13.0 0.00 0.00 0.00 60 1014.7
20260508114705 58 247 6.1 12.2 0.00 0.00 0.00 63 1014.6
20260508114205 57 267 6.1 11.3 0.00 0.00 0.00 65 1014.6
20260508113705 57 256 5.2 10.4 0.00 0.00 0.00 65 1014.6
20260508112705 57 254 5.2 12.2 0.00 0.00 0.00 66 1014.5
20260508112206 58 261 5.2 12.2 0.00 0.00 0.00 66 1014.5
20260508111705 58 244 5.2 13.0 0.00 0.00 0.00 67 1014.5
20260508111205 56 171 6.1 13.0 0.00 0.00 0.00 66 1014.5
20260508110705 56 239 6.1 13.0 0.00 0.00 0.00 66 1014.5
20260508105705 56 244 5.2 11.3 0.00 0.00 0.00 68 1014.5
20260508105205 55 244 5.2 13.0 0.00 0.00 0.00 70 1014.5
20260508104706 54 269 6.1 13.0 0.00 0.00 0.00 71 1014.5
20260508104205 54 229 6.1 13.0 0.00 0.00 0.00 70 1014.5
20260508103705 55 238 4.3 9.6 0.00 0.00 0.00 70 1014.5
20260508103205 54 200 4.3 12.2 0.00 0.00 0.00 72 1014.5
20260508102705 54 216 5.2 12.2 0.00 0.00 0.00 71 1014.4
20260508101705 54 216 4.3 11.3 0.00 0.00 0.00 73 1014.2
20260508101205 54 241 4.3 11.3 0.00 0.00 0.00 72 1014.3
20260508100705 54 252 5.2 11.3 0.00 0.00 0.00 72 1014.3
20260508100205 53 244 5.2 11.3 0.00 0.00 0.00 72 1014.2
20260508095705 53 236 5.2 9.6 0.00 0.00 0.00 72 1014.2
20260508094706 53 250 6.1 13.0 0.00 0.00 0.00 70 1014.1
20260508094205 53 277 6.1 13.0 0.00 0.00 0.00 70 1014.0
20260508093705 53 243 6.1 13.0 0.00 0.00 0.00 71 1014.0
20260508093205 54 208 5.2 11.3 0.00 0.00 0.00 71 1014.0
20260508092705 54 239 6.1 11.3 0.00 0.00 0.00 70 1014.0
20260508092207 54 214 6.1 12.2 0.00 0.00 0.00 71 1014.0
20260508091205 54 213 4.3 12.2 0.00 0.00 0.00 71 1013.9
20260508090705 53 252 4.3 8.7 0.00 0.00 0.00 76 1013.9
20260508090206 52 232 4.3 9.6 0.00 0.00 0.00 78 1013.9
20260508085705 52 260 4.3 9.6 0.00 0.00 0.00 78 1013.9
20260508085205 51 270 4.3 7.8 0.00 0.00 0.00 79 1013.8
20260508084205 51 263 4.3 9.6 0.00 0.00 0.00 79 1013.8
20260508083706 51 235 4.3 9.6 0.00 0.00 0.00 80 1013.8
20260508083205 51 257 4.3 12.2 0.00 0.00 0.00 80 1013.7
20260508082706 51 207 5.2 12.2 0.00 0.00 0.00 80 1013.7
20260508082205 51 262 4.3 8.7 0.00 0.00 0.00 80 1013.6
20260508081705 51 257 4.3 7.8 0.00 0.00 0.00 82 1013.6
20260508081205 51 224 4.3 7.8 0.00 0.00 0.00 82 1013.6
20260508080709 51 240 4.3 9.6 0.00 0.00 0.00 83 1013.5
20260508080205 50 216 4.3 9.6 0.00 0.00 0.00 83 1013.4
20260508075206 50 242 3.5 7.0 0.00 0.00 0.00 85 1013.4
20260508074705 49 254 2.6 7.8 0.00 0.00 0.00 85 1013.3
20260508074206 49 258 3.5 7.8 0.00 0.00 0.00 84 1013.2
20260508073706 49 262 3.5 8.7 0.00 0.00 0.00 84 1013.2
20260508073206 49 233 3.5 8.7 0.00 0.00 0.00 84 1013.1
20260508072205 49 238 3.5 10.4 0.00 0.00 0.00 84 1013.0
20260508071705 50 250 4.3 10.4 0.00 0.00 0.00 85 1012.9
20260508070730 50 238 4.3 9.6 0.00 0.00 0.00 85 1012.8
20260508070221 50 251 4.3 9.6 0.00 0.00 0.00 85 1012.7
20260508065706 50 220 4.3 9.6 0.00 0.00 0.00 85 1012.8
20260508064705 50 236 3.5 8.7 0.00 0.00 0.00 85 1012.6
20260508064205 50 233 3.5 8.7 0.00 0.00 0.00 85 1012.6
20260508063710 50 219 3.5 7.8 0.00 0.00 0.00 85 1012.5
20260508063205 50 229 3.5 7.8 0.00 0.00 0.00 85 1012.4
20260508062707 50 211 2.6 7.0 0.00 0.00 0.00 86 1012.4
20260508062206 50 221 3.5 9.6 0.00 0.00 0.00 86 1012.4
20260508061705 49 249 4.3 9.6 0.00 0.00 0.00 86 1012.4
20260508060705 49 242 4.3 9.6 0.00 0.00 0.00 86 1012.2
20260508060205 49 186 4.3 9.6 0.00 0.00 0.00 86 1012.2
20260508055705 49 250 4.3 9.6 0.00 0.00 0.00 86 1012.1
20260508055206 49 241 3.5 7.8 0.00 0.00 0.00 86 1012.0
20260508054705 49 235 4.3 9.6 0.00 0.00 0.00 86 1012.0
20260508054207 49 232 4.3 9.6 0.00 0.00 0.00 86 1011.9
20260508053705 49 236 4.3 9.6 0.00 0.00 0.00 86 1011.8
20260508053205 48 211 4.3 8.7 0.00 0.00 0.00 86 1011.7
20260508052706 48 198 4.3 9.6 0.00 0.00 0.00 86 1011.7
20260508052206 48 204 4.3 9.6 0.00 0.00 0.00 86 1011.6
20260508051705 48 209 4.3 9.6 0.00 0.00 0.00 86 1011.6
20260508050205 48 223 5.2 10.4 0.00 0.00 0.00 86 1011.5
20260508045705 48 215 5.2 10.4 0.00 0.00 0.00 86 1011.6
20260508045206 48 212 4.3 9.6 0.00 0.00 0.00 86 1011.5
20260508044705 48 189 4.3 10.4 0.00 0.00 0.00 86 1011.5
20260508044205 48 215 5.2 11.3 0.00 0.00 0.00 86 1011.4
20260508043705 48 225 6.1 11.3 0.00 0.00 0.00 86 1011.4
20260508043206 48 183 6.1 11.3 0.00 0.00 0.00 86 1011.3
20260508042205 48 205 6.1 12.2 0.00 0.00 0.00 85 1011.2
20260508041705 48 211 6.1 12.2 0.00 0.00 0.00 85 1011.1
20260508041205 48 175 6.1 11.3 0.00 0.00 0.00 85 1011.1
20260508040707 48 201 5.2 11.3 0.00 0.00 0.00 85 1011.1
20260508040205 48 224 4.3 10.4 0.00 0.00 0.00 85 1011.1
20260508035705 48 247 4.3 10.4 0.00 0.00 0.00 85 1011.0
20260508034705 48 204 4.3 8.7 0.00 0.00 0.00 84 1010.9
20260508034206 48 223 3.5 8.7 0.00 0.00 0.00 84 1010.9
20260508033705 48 204 3.5 7.8 0.00 0.00 0.00 84 1011.0
20260508033205 48 219 3.5 9.6 0.00 0.00 0.00 84 1011.0
20260508032205 47 248 4.3 8.7 0.00 0.00 0.00 84 1011.0
20260508031705 47 199 4.3 8.7 0.00 0.00 0.00 84 1011.0
20260508031204 47 212 3.5 7.8 0.00 0.00 0.00 83 1011.0
20260508030705 47 214 3.5 7.8 0.00 0.00 0.00 83 1011.0
20260508030205 47 233 2.6 7.8 0.00 0.00 0.00 82 1011.0
20260508025705 47 202 3.5 7.0 0.00 0.00 0.00 82 1011.0
20260508025205 47 217 3.5 10.4 0.00 0.00 0.00 82 1010.9
20260508024705 47 222 3.5 10.4 0.00 0.00 0.00 82 1011.0
20260508022706 48 200 3.5 8.7 0.00 0.00 0.00 81 1010.9
20260508022206 48 192 3.5 8.7 0.00 0.00 0.00 81 1010.9
20260508021705 48 190 3.5 8.7 0.00 0.00 0.00 81 1010.9
20260508021205 48 160 4.3 9.6 0.00 0.00 0.00 80 1010.9
20260508020705 48 224 4.3 9.6 0.00 0.00 0.00 81 1010.9
20260508020205 48 202 4.3 9.6 0.00 0.00 0.00 80 1010.8
20260508015705 48 196 4.3 10.4 0.00 0.00 0.00 80 1010.8
20260508015205 48 232 4.3 10.4 0.00 0.00 0.00 80 1010.9
20260508014705 48 205 4.3 8.7 0.00 0.00 0.00 80 1010.9
20260508014205 48 177 4.3 9.6 0.00 0.00 0.00 80 1010.9
20260508013209 48 220 6.1 13.9 0.00 0.00 0.00 80 1011.0
20260508012705 48 230 6.1 13.9 0.00 0.00 0.00 80 1010.9
20260508012206 48 180 6.1 13.9 0.00 0.00 0.00 80 1010.8
20260508011705 48 211 6.1 12.2 0.00 0.00 0.00 81 1010.8
20260508011205 47 222 5.2 9.6 0.00 0.00 0.00 81 1010.9
20260508010705 47 224 4.3 7.8 0.00 0.00 0.00 81 1010.8
20260508010205 47 214 4.3 9.6 0.00 0.00 0.00 82 1010.8
20260508005705 47 223 5.2 9.6 0.00 0.00 0.00 82 1010.9
20260508004705 47 178 3.5 7.8 0.00 0.00 0.00 83 1010.9
20260508004205 47 217 2.6 6.1 0.00 0.00 0.00 83 1010.9
20260508003705 46 228 1.7 5.2 0.00 0.00 0.00 83 1010.9
20260508003206 46 240 1.7 6.1 0.00 0.00 0.00 83 1010.9
20260508002705 47 220 2.6 6.1 0.00 0.00 0.00 83 1010.9
20260508002225 47 219 2.6 7.8 0.00 0.00 0.00 83 1010.9
20260508001708 47 241 2.6 7.8 0.00 0.00 0.00 84 1010.9
20260508001205 47 259 2.6 6.1 0.00 0.00 0.00 84 1011.0
20260508000708 47 243 2.6 7.0 0.00 0.00 0.00 84 1010.9
20260508000205 47 246 3.5 8.7 0.00 0.00 0.00 84 1010.9
20260507235705 46 255 3.5 8.7 0.00 0.00 0.00 85 1010.9
20260507235205 46 237 3.5 8.7 0.00 0.00 0.00 85 1010.9
20260507234709 46 242 3.5 7.8 0.00 0.00 0.00 85 1010.8
20260507234205 45 262 1.7 4.3 0.00 0.00 0.00 84 1010.9
20260507233710 45 229 0.9 4.3 0.00 0.00 0.00 83 1010.8
20260507233206 46 219 0.9 3.5 0.00 0.00 0.00 83 1010.9
20260507232705 46 234 1.7 3.5 0.00 0.00 0.00 82 1010.9
20260507232206 46 238 0.9 2.6 0.00 0.00 0.00 82 1011.0
20260507231705 46 233 0.9 1.7 0.00 0.00 0.00 82 1010.9
20260507231205 46 248 0.0 1.7 0.00 0.00 0.00 81 1010.9
20260507230704 46 248 0.0 1.7 0.00 0.00 0.00 81 1010.9
20260507230229 46 248 0.0 1.7 0.00 0.00 0.00 81 1010.9
20260507225706 47 212 0.0 1.7 0.00 0.00 0.00 81 1010.9
20260507225207 47 212 0.0 2.6 0.00 0.00 0.00 81 1010.9
20260507224705 47 212 0.9 3.5 0.00 0.00 0.00 80 1010.9
20260507224205 47 212 0.9 6.1 0.00 0.00 0.00 80 1010.8
20260507223705 47 244 1.7 7.8 0.00 0.00 0.00 80 1010.8
20260507222705 48 230 2.6 7.8 0.00 0.00 0.00 80 1010.9
20260507222205 48 232 2.6 7.0 0.00 0.00 0.00 80 1010.8
20260507221727 48 250 2.6 8.7 0.00 0.00 0.00 80 1010.8
20260507221205 48 226 2.6 8.7 0.00 0.00 0.00 79 1010.8
20260507220227 49 228 3.5 8.7 0.00 0.00 0.00 79 1010.8
20260507215705 49 225 3.5 8.7 0.00 0.00 0.00 79 1010.8
20260507215206 49 199 4.3 8.7 0.00 0.00 0.00 79 1010.8
20260507214205 49 225 3.5 9.6 0.00 0.00 0.00 78 1010.8
20260507213704 49 234 4.3 9.6 0.00 0.00 0.00 78 1010.8
20260507212705 49 167 4.3 12.2 0.00 0.00 0.00 77 1010.8
20260507212205 49 204 3.5 8.7 0.00 0.00 0.00 77 1010.8
20260507211705 50 204 3.5 7.8 0.00 0.00 0.00 77 1010.9
20260507211205 50 215 3.5 7.8 0.00 0.00 0.00 77 1010.9
20260507210705 50 223 3.5 9.6 0.00 0.00 0.00 76 1010.9
20260507210207 50 197 4.3 9.6 0.00 0.00 0.00 76 1010.8
20260507205705 50 215 4.3 11.3 0.00 0.00 0.00 76 1010.8
20260507205205 51 221 4.3 13.0 0.00 0.00 0.00 75 1010.8
20260507204705 51 198 4.3 13.0 0.00 0.00 0.00 75 1010.8
20260507204205 51 212 4.3 11.3 0.00 0.00 0.00 75 1010.8
20260507203706 51 212 5.2 11.3 0.00 0.00 0.00 75 1010.7
20260507203212 51 204 6.1 11.3 0.00 0.00 0.00 74 1010.7
20260507202705 51 196 5.2 13.0 0.00 0.00 0.00 74 1010.7
20260507202206 52 221 5.2 15.6 0.00 0.00 0.00 74 1010.6
20260507201705 52 148 7.0 15.6 0.00 0.00 0.00 74 1010.5
20260507201205 52 212 7.8 15.6 0.00 0.00 0.00 73 1010.4
20260507200705 52 184 7.8 14.8 0.00 0.00 0.00 73 1010.3
20260507200205 52 240 7.8 14.8 0.00 0.00 0.00 73 1010.2
20260507195705 52 215 7.8 14.8 0.00 0.00 0.00 72 1010.2
20260507195206 52 199 7.8 14.8 0.00 0.00 0.00 72 1010.2
20260507194205 52 194 6.1 13.0 0.00 0.00 0.00 71 1010.1
20260507193705 53 223 5.2 13.0 0.00 0.00 0.00 71 1010.1
20260507192206 53 195 7.0 13.9 0.00 0.00 0.00 71 1010.0
20260507191706 53 211 6.1 12.2 0.00 0.00 0.00 71 1010.0
20260507191205 53 173 6.1 12.2 0.00 0.00 0.00 71 1010.0
20260507190705 53 221 6.1 12.2 0.00 0.00 0.00 71 1010.1
20260507190205 53 188 7.0 12.2 0.00 0.00 0.00 71 1010.1
20260507185705 53 175 7.8 12.2 0.00 0.00 0.00 70 1010.1
20260507184705 53 183 7.0 14.8 0.00 0.00 0.00 69 1010.0
20260507184205 53 221 7.8 15.6 0.00 0.00 0.00 69 1010.0
20260507183705 53 252 8.7 15.6 0.00 0.00 0.00 68 1009.9
20260507183206 54 190 7.8 15.6 0.00 0.00 0.00 69 1010.0
20260507182705 54 181 7.8 13.9 0.00 0.00 0.00 68 1010.0
20260507182206 54 209 7.8 14.8 0.00 0.00 0.00 68 1009.9
20260507181704 54 223 7.0 15.6 0.00 0.00 0.00 69 1009.9
20260507181206 54 168 7.8 17.4 0.00 0.00 0.00 69 1009.9
20260507180705 54 194 7.8 17.4 0.00 0.00 0.00 69 1009.9
20260507180205 54 213 8.7 17.4 0.00 0.00 0.00 69 1009.8
20260507175706 54 196 7.8 15.6 0.00 0.00 0.00 69 1009.8
20260507175205 53 208 5.2 11.3 0.00 0.00 0.00 70 1009.8
20260507173707 53 194 3.5 7.8 0.00 0.00 0.00 73 1009.9
20260507172705 53 195 2.6 8.7 0.00 0.00 0.00 73 1009.9
20260507171707 53 198 4.3 8.7 0.00 0.00 0.00 73 1009.9
20260507171205 53 199 3.5 7.8 0.00 0.00 0.00 73 1009.9
20260507170206 53 211 2.6 6.1 0.00 0.00 0.00 74 1009.9
20260507165206 53 199 2.6 5.2 0.00 0.00 0.00 75 1010.0
20260507164705 53 213 1.7 5.2 0.00 0.00 0.00 74 1010.1
20260507164205 53 190 0.9 2.6 0.00 0.00 0.00 75 1010.1
20260507163705 53 227 0.9 4.3 0.00 0.00 0.00 75 1010.2
20260507163205 53 222 0.9 4.3 0.00 0.00 0.00 75 1010.2
20260507162705 53 232 1.7 5.2 0.00 0.00 0.00 75 1010.2
20260507162206 52 207 2.6 5.2 0.00 0.00 0.00 74 1010.2
20260507161708 53 200 2.6 7.0 0.00 0.00 0.00 75 1010.2
20260507161205 53 227 3.5 7.8 0.00 0.00 0.00 75 1010.3
20260507160705 53 264 3.5 7.8 0.00 0.00 0.00 76 1010.2
20260507160206 52 288 3.5 7.8 0.00 0.00 0.00 76 1010.3
20260507155706 52 226 2.6 7.0 0.00 0.00 0.00 76 1010.4
20260507155206 52 257 3.5 7.0 0.00 0.00 0.00 75 1010.4
20260507154705 52 261 3.5 8.7 0.00 0.00 0.00 75 1010.4
20260507153206 52 258 5.2 11.3 0.00 0.00 0.00 74 1010.4
20260507152706 52 231 6.1 11.3 0.00 0.00 0.00 72 1010.5
20260507151205 54 225 7.8 16.5 0.00 0.00 0.00 67 1010.5
20260507150205 55 202 7.8 15.6 0.00 0.00 0.00 67 1010.3
20260507145704 55 180 7.8 15.6 0.00 0.00 0.00 67 1010.3
20260507145207 55 205 7.8 17.4 0.00 0.00 0.00 67 1010.4
20260507144705 55 167 7.0 17.4 0.00 0.00 0.00 67 1010.6
20260507144205 55 207 6.1 17.4 0.00 0.00 0.00 67 1010.5
20260507143705 55 213 6.1 18.2 0.00 0.00 0.00 68 1010.5
20260507143205 55 181 7.0 18.2 0.00 0.00 0.00 67 1010.6